Regional Weather Roundup
Issued by NWS

Home | Current Version | Previous Version | Graphics & Text | Print | Product List | Glossary On
Versions: 1 2 3 4 5 6 7 8 9 10 11 12 13 14 15 16 17 18 19 20 21 22 23 24 25 26 27 28
000
ASUS45 KPSR 250310
RWRAZ

ARIZONA HOURLY REGIONAL WEATHER ROUNDUP
NATIONAL WEATHER SERVICE PHOENIX AZ
800 PM MST FRI FEB 24 2017

NOTE: FAIR INDICATES FEW OR NO CLOUDS BELOW 12,000 FEET WITH NO
SIGNIFICANT WEATHER AND/OR OBSTRUCTIONS TO VISIBILITY.

AZZ001>003-036-250400-
NORTHWEST ARIZONA

CITY           SKY/WX    TMP DP  RH WIND       PRES   REMARKS
BULLHEAD CITY  CLEAR     54  21  28 E7        30.12R
KINGMAN        CLEAR     34   4  28 SE3       30.11R
$$

AZZ004>008-015-016-018-250400-
NORTH CENTRAL ARIZONA

CITY           SKY/WX    TMP DP  RH WIND       PRES   REMARKS
GRAND CANYON   CLEAR     22  13  68 CALM      30.07R
WILLIAMS       CLEAR     28   7  40 CALM      30.08R
PRESCOTT       CLEAR     37  13  37 S5        30.09R WCI  33
FLAGSTAFF      CLEAR     30   6  36 W9        30.06R WCI  22
PAYSON         CLEAR     36  18  48 CALM      30.13R
PAGE           CLEAR     39  -8  13 W8        30.07R WCI  33
$$

AZZ009>014-017-250400-
NORTHEAST ARIZONA

CITY           SKY/WX    TMP DP  RH WIND       PRES   REMARKS
WINSLOW        CLEAR     35   4  27 W5        30.07R WCI  31
SAINT JOHNS    CLEAR     37   2  22 W10       30.05R WCI  30
WINDOW ROCK    CLEAR     27   2  34 SW5       30.03R WCI  22
SHOW LOW       CLEAR     32  12  43 SW13      30.08R WCI  22
$$

AZZ023-250400-
GREATER PHOENIX AREA

CITY           SKY/WX    TMP DP  RH WIND       PRES   REMARKS
PHOENIX        CLEAR     56  30  37 W5        30.10R
BUCKEYE        CLEAR     50  30  46 W6        30.11R
GLENDALE       CLEAR     55  25  30 CALM      30.12R
LUKE AFB       CLEAR     54  26  34 W6        30.09R
DEER VALLEY    CLEAR     53  24  32 SW5       30.10R
SCOTTSDALE     CLEAR     56  19  23 W3        30.12R
MESA-FALCON    CLEAR    N/A N/A N/A SW5       30.09R
MESA-GATEWAY   CLEAR     54  25  32 CALM      30.12R
CHANDLER       CLEAR     55  19  24 SW9       30.11R
$$

AZZ027-028-250400-
SOUTHWEST MARICOPA COUNTY AND PINAL COUNTY

CITY           SKY/WX    TMP DP  RH WIND       PRES   REMARKS
CASA GRANDE    NOT AVBL
$$

AZZ503-504-507>509-250400-
SOUTHEAST ARIZONA

CITY           SKY/WX    TMP DP  RH WIND       PRES   REMARKS
TUCSON         CLEAR     53  16  23 E3        30.12R
DAVIS-MONTHAN  CLEAR     51  16  25 NW5       30.11R
RYAN FIELD     CLEAR     52  18  25 CALM      30.13R
NOGALES        CLEAR     45  13  27 E3        30.12R
SIERRA VISTA   CLEAR     44  13  29 W10       30.13R
DOUGLAS        CLEAR     43   9  24 N12       30.09R
SAFFORD        CLEAR     49  11  21 NW13      30.07R
$$

AZZ020-021-025-026-031-250400-
SOUTHWEST ARIZONA

CITY           SKY/WX    TMP DP  RH WIND       PRES   REMARKS
YUMA           CLEAR     60  25  26 CALM      30.11R
$$

CAZ031-033-041-043-047-048-061-250400-
SOUTHERN CALIFORNIA

CITY           SKY/WX    TMP DP  RH WIND       PRES   REMARKS
DOWNTOWN L.A.  CLEAR     55  39  54 CALM      30.15R
L.A. AIRPORT   CLEAR     53  37  54 W12       30.15S
SAN DIEGO      PTCLDY    57  36  45 N6        30.18R
BURBANK        CLEAR     53  26  35 SE7       30.13R
ONTARIO        CLEAR     51  33  50 SW8       30.13R
RIVERSIDE      CLEAR     49  36  61 W7        30.13R
PALM SPRINGS   CLEAR     58  35  42 SW3       30.12R
EL CENTRO NAS  CLEAR     56  25  30 N5        30.13R
IMPERIAL       CLEAR     60  31  33 CALM      30.11R
BLYTHE         CLEAR     56  30  37 S3        30.12R
NEEDLES        CLEAR     55  31  39 W3        30.11R
$$

NVZ020-UTZ003-250400-
SOUTHERN NEVADA-UTAH

CITY           SKY/WX    TMP DP  RH WIND       PRES   REMARKS
LAS VEGAS      PTCLDY    49  12  22 E9        30.10R
SALT LAKE CITY PTCLDY    28  17  63 SE6       30.13S WCI  22
$$

NMZ009-TXZ055-250400-
NEW MEXICO-WEST TEXAS

CITY           SKY/WX    TMP DP  RH WIND       PRES   REMARKS
ALBUQUERQUE    CLEAR     39   0  19 NW12      30.03R WCI  32
EL PASO        CLEAR     56   6  13 W20G26    30.01R
$$


........................KEY........................
SKY/WX - SKY CONDITION/WEATHER
TMP    - TEMPERATURE IN FAHRENHEIT
DP     - DEW POINT IN FAHRENHEIT
RH     - RELATIVE HUMIDITY IN PERCENT
WIND   - DIRECTION AND SPEED IN MILES PER HOUR (MPH)
VRB    - VARIABLE WIND DIRECTION
PRES   - MEAN SEA LEVEL PRESSURE IN INCHES OF MERCURY
         F - FALLING PRESSURE   R - RISING PRESSURE
         S - STEADY PRESSURE
VSB    - VISIBILITY IN MILES
HX     - HEAT INDEX IN FAHRENHEIT
WCI    - WIND CHILL INDEX IN FAHRENHEIT
TC     - TEMPERATURE IN CELSIUS WHICH IS ALSO KNOWN AS
         TEMPERATURE IN CENTIGRADE
AFB    - AIR FORCE BASE
         LUKE AFB IS LUKE AIR FORCE BASE
         DAVIS-MONTHAN IS DAVIS-MONTHAN AIR FORCE BASE
NAS    - NAVAL AIR STATION
         EL CENTRO NAS IS EL CENTRO NAVAL AIR STATION
N/A    - NOT AVAILABLE





USA.gov is the U.S. government's official web portal to all federal, state and local government web resources and services.